Marion, SC

5:01 PM EST on February 08, 2016 (GMT -0500)
Marion County

Weather History for KMAO - December, 2013

Change the Weather History Date:

Saturday, December 21, 2013

  Actual Average (KFLO) Record (KFLO)
Temperature  
Mean Temperature 62 °F 46 °F  
Max Temperature 77 °F 56 °F 79 °F (2013)
Min Temperature 46 °F 36 °F 16 °F (1981)
Degree Days  
Heating Degree Days 4 19  
Month to date heating degree days 358  
Since 1 July heating degree days 780  
Cooling Degree Days 0 0  
Month to date cooling degree days 0  
Year to date cooling degree days 2059  
Growing Degree Days 12 (Base 50)    
Moisture  
Dew Point 58 °F    
Average Humidity 87    
Maximum Humidity 100    
Minimum Humidity 61    
Precipitation  
Precipitation 0.00 in 0.10 in 1.30 in (1972)
Month to date precipitation 1.99  
Year to date precipitation 41.89  
Sea Level Pressure  
Sea Level Pressure 30.14 in    
Wind  
Wind Speed 4 mph (South)    
Max Wind Speed 16 mph    
Max Gust Speed 22 mph    
Visibility 8 miles    
Events Fog    
T = Trace of Precipitation, MM = Missing Value Source: NWS Daily Summary

Daily Weather History Graph

Daily Weather History Graph

Search for Another Location

Airport or City:

Trip Planner

Search our weather history database for the weather conditions in past years. The results will help you decide how hot, cold, wet, or windy it might be!

Date:

Astronomy

Dec. 21, 2013 Rise Set
Actual Time 7:19 AM EST 5:11 PM EST
Civil Twilight 6:51 AM EST 5:39 PM EST
Nautical Twilight 6:20 AM EST 6:11 PM EST
Astronomical Twilight 5:49 AM EST 6:41 PM EST
Moon 9:16 PM EST (12/21) 9:53 AM EST (12/21)
Length of Visible Light 10h 48m
Length of Day
9h 52m
Waning Gibbous, 84% of the Moon is Illuminated
Dec 21
Waning Gibbous
Dec 25
Last Quarter
Jan 1
New
Jan 7
First Quarter
Jan 15
Full

Hourly Weather History & Observations

Time (EST) Temp. Dew Point Humidity Pressure Visibility Wind Dir Wind Speed Gust Speed Precip Events Conditions
12:15 AM 53.6 °F 53.6 °F 100% 30.19 in 10.0 mi SSE 3.5 mph - N/A   Mostly Cloudy
12:35 AM 50.0 °F 50.0 °F 100% 30.19 in 7.0 mi Calm Calm - N/A   Scattered Clouds
12:55 AM 51.8 °F 51.8 °F 100% 30.18 in 7.0 mi Calm Calm - N/A   Mostly Cloudy
1:15 AM 51.8 °F 51.8 °F 100% 30.18 in 10.0 mi South 4.6 mph - N/A   Scattered Clouds
1:35 AM 53.6 °F 53.6 °F 100% 30.16 in 10.0 mi SSE 4.6 mph - N/A   Clear
1:55 AM 53.6 °F 53.6 °F 100% 30.17 in 10.0 mi South 3.5 mph - N/A   Clear
2:15 AM 53.6 °F 53.6 °F 100% 30.17 in 10.0 mi SSE 3.5 mph - N/A   Scattered Clouds
2:35 AM 50.0 °F 50.0 °F 100% 30.17 in 7.0 mi South 3.5 mph - N/A   Mostly Cloudy
2:55 AM 51.8 °F 51.8 °F 100% 30.17 in 7.0 mi SSE 4.6 mph - N/A   Scattered Clouds
3:15 AM 50.0 °F 50.0 °F 100% 30.17 in 5.0 mi Calm Calm - N/A   Clear
3:35 AM 50.0 °F 50.0 °F 100% 30.17 in 7.0 mi Calm Calm - N/A   Mostly Cloudy
3:55 AM 50.0 °F 50.0 °F 100% 30.16 in 4.0 mi Calm Calm - N/A   Mostly Cloudy
4:15 AM 50.0 °F 50.0 °F 100% 30.15 in 4.0 mi Calm Calm - N/A   Mostly Cloudy
4:35 AM 50.0 °F 50.0 °F 100% 30.16 in 7.0 mi Calm Calm - N/A   Mostly Cloudy
4:55 AM 50.0 °F 50.0 °F 100% 30.15 in 1.0 mi Calm Calm - N/A   Mostly Cloudy
5:15 AM 50.0 °F 50.0 °F 100% 30.16 in 0.5 mi Calm Calm - N/A Fog Fog
5:35 AM 48.2 °F 48.2 °F 100% 30.16 in 0.5 mi Calm Calm - N/A Fog Fog
5:55 AM 48.2 °F 48.2 °F 100% 30.17 in 0.2 mi Calm Calm - N/A Fog Fog
6:15 AM 46.4 °F 46.4 °F 100% 30.16 in 0.2 mi Calm Calm - N/A Fog Fog
6:35 AM 48.2 °F 48.2 °F 100% 30.17 in 5.0 mi Calm Calm - N/A   Scattered Clouds
6:55 AM 46.4 °F 46.4 °F 100% 30.17 in 5.0 mi Calm Calm - N/A   Clear
7:15 AM 46.4 °F 46.4 °F 100% 30.18 in 5.0 mi Calm Calm - N/A   Clear
7:35 AM 46.4 °F 46.4 °F 100% 30.17 in 5.0 mi Calm Calm - N/A   Clear
7:55 AM 46.4 °F 46.4 °F 100% 30.18 in 7.0 mi Calm Calm - N/A   Clear
8:15 AM 48.2 °F 48.2 °F 100% 30.18 in 7.0 mi Calm Calm - N/A   Clear
8:35 AM 50.0 °F 50.0 °F 100% 30.17 in 7.0 mi Calm Calm - N/A   Clear
8:55 AM 55.4 °F 55.4 °F 100% 30.17 in 7.0 mi SSE 4.6 mph - N/A   Clear
9:15 AM 59.0 °F 59.0 °F 100% 30.17 in 10.0 mi South 5.8 mph - N/A   Clear
9:35 AM 59.0 °F 59.0 °F 100% 30.18 in 10.0 mi South 4.6 mph - N/A   Scattered Clouds
9:55 AM 60.8 °F 60.8 °F 100% 30.18 in 10.0 mi South 4.6 mph - N/A   Scattered Clouds
10:15 AM 64.4 °F 60.8 °F 88% 30.17 in 10.0 mi South 4.6 mph - N/A   Scattered Clouds
10:35 AM 68.0 °F 60.8 °F 78% 30.18 in 10.0 mi SSE 4.6 mph - N/A   Clear
10:55 AM 69.8 °F 60.8 °F 73% 30.17 in 10.0 mi South 4.6 mph - N/A   Clear
11:15 AM 71.6 °F 60.8 °F 69% 30.16 in 10.0 mi South 9.2 mph - N/A   Clear
11:35 AM 71.6 °F 60.8 °F 69% 30.16 in 10.0 mi South 6.9 mph - N/A   Clear
11:55 AM 73.4 °F 60.8 °F 65% 30.15 in 10.0 mi SSW 10.4 mph - N/A   Clear
12:15 PM 73.4 °F 62.6 °F 69% 30.14 in 10.0 mi South 12.7 mph 16.1 mph N/A   Scattered Clouds
12:35 PM 75.2 °F 62.6 °F 65% 30.13 in 10.0 mi SSW 11.5 mph 21.9 mph N/A   Scattered Clouds
12:55 PM 75.2 °F 62.6 °F 65% 30.13 in 10.0 mi SSW 11.5 mph - N/A   Scattered Clouds
1:15 PM 75.2 °F 62.6 °F 65% 30.12 in 10.0 mi SSW 13.8 mph - N/A   Scattered Clouds
1:35 PM 75.2 °F 62.6 °F 65% 30.11 in 10.0 mi South 15.0 mph 18.4 mph N/A   Scattered Clouds
1:55 PM 75.2 °F 62.6 °F 65% 30.10 in 10.0 mi South 11.5 mph - N/A   Mostly Cloudy
2:15 PM 77.0 °F 62.6 °F 61% 30.09 in 10.0 mi South 10.4 mph 19.6 mph N/A   Scattered Clouds
2:35 PM 77.0 °F 62.6 °F 61% 30.08 in 10.0 mi South 13.8 mph - N/A   Scattered Clouds
2:55 PM 77.0 °F 62.6 °F 61% 30.08 in 10.0 mi South 16.1 mph - N/A   Scattered Clouds
3:15 PM 77.0 °F 62.6 °F 61% 30.08 in 10.0 mi SSE 10.4 mph - N/A   Mostly Cloudy
3:35 PM 75.2 °F 62.6 °F 65% 30.08 in 10.0 mi SSE 9.2 mph - N/A   Mostly Cloudy
3:55 PM 75.2 °F 62.6 °F 65% 30.08 in 10.0 mi South 12.7 mph - N/A   Scattered Clouds
4:15 PM 73.4 °F 62.6 °F 69% 30.08 in 10.0 mi SSE 8.1 mph 11.5 mph N/A   Scattered Clouds
4:35 PM 73.4 °F 64.4 °F 73% 30.09 in 10.0 mi SSE 9.2 mph - N/A   Mostly Cloudy
4:55 PM 73.4 °F 64.4 °F 73% 30.09 in 10.0 mi South 8.1 mph - N/A   Scattered Clouds
5:15 PM 71.6 °F 64.4 °F 78% 30.09 in 10.0 mi SSE 6.9 mph - N/A   Scattered Clouds
5:35 PM 71.6 °F 64.4 °F 78% 30.09 in 10.0 mi SSE 5.8 mph - N/A   Mostly Cloudy
5:55 PM 71.6 °F 64.4 °F 78% 30.10 in 10.0 mi SSE 5.8 mph - N/A   Overcast
6:15 PM 69.8 °F 64.4 °F 83% 30.10 in 10.0 mi SSE 6.9 mph - N/A   Mostly Cloudy
6:35 PM 69.8 °F 64.4 °F 83% 30.10 in 10.0 mi SSE 8.1 mph - N/A   Scattered Clouds
6:55 PM 69.8 °F 64.4 °F 83% 30.11 in 10.0 mi SSE 8.1 mph - N/A   Scattered Clouds
7:15 PM 69.8 °F 64.4 °F 83% 30.12 in 10.0 mi South 8.1 mph - N/A   Mostly Cloudy
7:35 PM 69.8 °F 64.4 °F 83% 30.12 in 10.0 mi South 6.9 mph - N/A   Mostly Cloudy
7:55 PM 68.0 °F 64.4 °F 88% 30.12 in 10.0 mi South 6.9 mph - N/A   Scattered Clouds
8:15 PM 68.0 °F 64.4 °F 88% 30.12 in 10.0 mi SSE 6.9 mph - N/A   Mostly Cloudy
8:35 PM 68.0 °F 64.4 °F 88% 30.12 in 10.0 mi SSE 6.9 mph - N/A   Mostly Cloudy
8:55 PM 68.0 °F 64.4 °F 88% 30.12 in 10.0 mi SSE 6.9 mph - N/A   Mostly Cloudy
9:15 PM 68.0 °F 64.4 °F 88% 30.12 in 10.0 mi South 6.9 mph - N/A   Mostly Cloudy
9:35 PM 66.2 °F 64.4 °F 94% 30.12 in 10.0 mi South 5.8 mph - N/A   Mostly Cloudy
9:55 PM 66.2 °F 64.4 °F 94% 30.12 in 10.0 mi South 4.6 mph - N/A   Mostly Cloudy
10:15 PM 66.2 °F 64.4 °F 94% 30.12 in 10.0 mi South 3.5 mph - N/A   Mostly Cloudy
10:35 PM 64.4 °F 64.4 °F 100% 30.12 in 10.0 mi SSE 4.6 mph - N/A   Mostly Cloudy
10:55 PM 64.4 °F 64.4 °F 100% 30.12 in 7.0 mi SSE 5.8 mph - N/A   Clear
11:15 PM 64.4 °F 64.4 °F 100% 30.12 in 10.0 mi SSE 6.9 mph - N/A   Clear
11:35 PM 64.4 °F 64.4 °F 100% 30.11 in 10.0 mi SSE 6.9 mph - N/A   Scattered Clouds
11:55 PM 64.4 °F 64.4 °F 100% 30.11 in 10.0 mi SSE 5.8 mph - N/A   Clear